THOR ABLESTAR DEB, 644

Orbit data source: Space-Track

THOR ABLESTAR DEB, 644 is space debris in LEO originally from a launch on Thu, 29 Jun 1961 UTC launched from the Air Force Eastern Test Range (AFETR). Debris objects in space refer to the collection of defunct objects orbiting the Earth. Examples of debris include non-operational satellites, rocket bodies, and fragments generated from explosions, collisions, or faulty payload assembly.

Loading next visibility...
Identifier
644, 1961-015GV
Orbit
LEO
Country
Flag of USUS
Related business
Manufacturer
Unknown
Mission
Spacecraft
Bus & Motor
Unknown
Mass
Unknown
Launch date (UTC)
1961-06-29 (64 years ago)
Launch vehicle
Unknown
Launch site
Air Force Eastern Test Range (AFETR)
Object type
Payload
Rocket body
Debris
Shape & HBR
Unknown shape, 0.1 m
Radar Cross Section
Small (<0.1 m²)

Expand to show TLE details & history
Last TLE update: 20 hours ago

TLE from 20 hours ago
0 THOR ABLESTAR DEB
1   644U 61015GV  25312.42887566  .00000893  00000-0  11819-2 0  9998
2   644  67.0978  82.7559 0145772 272.2122 146.4320 13.61011498167696
Epoch: 2025-11-08T10:17Z
TLE epoch observation values (Epoch: 2025-11-08T10:17:34.857Z)
Latitude
52.68766°
Longitude
-86.02857°
Altitude
1,130.258 km
Speed
7.248 km/s
True Right ascension
07h 44m 54s
True Declination
52° 31' 48"
Sunlit
Object was in daylight at epoch
Visualization orbit readout
Latitude
Unknown
Longitude
Unknown
Altitude
Unknown
Speed
Unknown
Apparent Right ascension
Unknown
Apparent Declination
Unknown
Sunlit
N/A
Visualization observer readout
Local Sidereal Time
02:56:30
Azimuth
Unknown
Elevation
Unknown
Doppler factor
Unknown
Orbital elements
Apogee altitude
1,138.397 km
Perigee altitude
922.405 km
Semi-major axis
7,408.538 km
Eccentricity
0.01458
Inclination
67.0978°
RAAN
82.7559°
Arg. of periapsis
272.2122°
True anomaly
147.34176°
Mean anomaly
146.432°
Eccentric anomaly
146.88825°
Mean motion
3.40365 °/min
Orbital period
105.77 mins
BSTAR
0.0011819
Loading maneuver chart data...
Computing Atmospheric mass density...
Loading historical data...
Loading historical data...
Loading historical data...
Loading historical data...
Loading historical data...
Loading historical data...
Loading historical data...

Documentation

Showing up to 5 results
|